This is the latest recevied weather packets stored in our database for station/object N7NIP. If no packets are shown the sender has not sent any weather packets the latest 10 day(s).
| Time | Temp. | Humidity | Pressure | Rain* | Wind** | Luminosity | Snow |
|---|---|---|---|---|---|---|---|
| 1777377841 | 6.67° C | 93% | 1034.7 hPa | 0 mm | - | 0 W/m² | - |
| 1777377540 | 6.67° C | 94% | 1034.7 hPa | 0 mm | - | 0 W/m² | - |
| 1777377236 | 6.67° C | 94% | 1034.5 hPa | 0 mm | - | 0 W/m² | - |
| 1777376934 | 6.67° C | 95% | 1034.4 hPa | 0 mm | - | 0 W/m² | - |
| 1777376630 | 6.11° C | 94% | 1034.4 hPa | 0 mm | - | 0 W/m² | - |
| 1777376328 | 6.11° C | 95% | 1034.6 hPa | 0 mm | - | 0 W/m² | - |
| 1777376023 | 6.11° C | 95% | 1034.6 hPa | 0 mm | - | 0 W/m² | - |
| 1777375722 | 6.11° C | 95% | 1034.5 hPa | 0 mm | - | 0 W/m² | - |
| 1777375418 | 6.11° C | 95% | 1034.6 hPa | 0 mm | - | 0 W/m² | - |
| 1777375115 | 5.56° C | 94% | 1034.3 hPa | 0 mm | - | 0 W/m² | - |
| 1777374814 | 5.56° C | 94% | 1034.3 hPa | 0 mm | - | 0 W/m² | - |
| 1777374511 | 5.56° C | 94% | 1034.5 hPa | 0 mm | - | 0 W/m² | - |
| 1777374208 | 5.56° C | 94% | 1034.2 hPa | 0 mm | - | 0 W/m² | - |
| 1777373903 | 6.11° C | 94% | 1034.3 hPa | 0 mm | - | 0 W/m² | - |
| 1777373601 | 5.56° C | 94% | 1034.5 hPa | 0 mm | - | 0 W/m² | - |
| 1777373297 | 5.56° C | 93% | 1034.3 hPa | 0 mm | - | 0 W/m² | - |
| 1777372992 | 6.11° C | 92% | 1034.1 hPa | 0 mm | - | 0 W/m² | - |
| 1777372688 | 6.11° C | 91% | 1033.9 hPa | 0 mm | - | 0 W/m² | - |
| 1777372387 | 6.67° C | 91% | 1033.9 hPa | 0 mm | - | 0 W/m² | - |
| 1777372086 | 6.67° C | 90% | 1033.8 hPa | 0 mm | - | 0 W/m² | - |
| 1777371781 | 7.22° C | 89% | 1033.9 hPa | 0 mm | - | 0 W/m² | - |
| 1777371478 | 7.22° C | 89% | 1033.9 hPa | 0 mm | - | 0 W/m² | - |
| 1777371174 | 7.22° C | 88% | 1033.8 hPa | 0 mm | - | 0 W/m² | - |
| 1777370871 | 7.78° C | 87% | 1033.9 hPa | 0 mm | - | 0 W/m² | - |
| 1777370567 | 7.78° C | 86% | 1033.9 hPa | 0 mm | - | 0 W/m² | - |
* Rain latest hour (hover to see other rain measurements)
** Current wind speed in m/s (hover to see current wind gust speed)